User: anonymous
Location: St. Malo Provincial Park
(49.3214°N, 96.9305°W)
Time: 12:32:02
(UTC-05:00)
Language:

Iridium 6 - Orbit

View from above orbital plane
View from above orbital plane
View from above satellite
View from above satellite

Ground track
Ground track

The orbit data is extracted from the following two-line orbital elements,

1 24794U 97020C   14205.13784420  .00000008  00000-0 -42957-5 0  7118
2 24794 086.3939 041.5531 0002091 107.4886 252.6538 14.34214793901404
Epoch (UTC): 24 July 2014 03:18:29
Eccentricity: 0.0002091
inclination: 86.3939°
perigee height: 776 km
apogee height: 779 km
right ascension of ascending node: 41.5531°
argument of perigee: 107.4886°
revolutions per day: 14.34214793
mean anomaly at epoch: 252.6538°
orbit number at epoch: 90140

The dashed part of the orbit path shows where the satellite is in the earth's shadow,  

DLR